timestamp,surface_pressure_avg,surface_temp_avg,battery_voltage,lat,long
2022-06-09 00:09:00+00:00,213.0498,5.3,12.09,47.84626,-54.09684
2022-06-09 00:19:01+00:00,211.3531,5.33,12.09,47.84626,-54.09684
2022-06-09 00:29:01+00:00,210.9931,5.4,12.09,47.84626,-54.09684
2022-06-09 00:39:01+00:00,212.7348,5.5,12.09,47.84626,-54.09684
2022-06-09 00:49:01+00:00,212.1848,5.56,12.09,47.84626,-54.09684
2022-06-09 00:59:01+00:00,210.1748,5.6,12.09,47.84626,-54.09684
2022-06-09 01:09:01+00:00,211.6531,5.63,12.09,47.84626,-54.09684
2022-06-09 01:19:01+00:00,213.7314,5.7,12.09,47.84626,-54.09684
2022-06-09 01:29:01+00:00,211.4565,5.7,12.09,47.84626,-54.09684
2022-06-09 01:39:01+00:00,211.7514,5.79,12.09,47.84626,-54.09684
2022-06-09 01:49:01+00:00,218.2031,5.8,12.09,47.84626,-54.09684
2022-06-09 01:59:01+00:00,223.3298,5.8,12.09,47.84626,-54.09684
2022-06-09 02:09:01+00:00,224.5998,5.8,12.09,47.84626,-54.09684
2022-06-09 02:19:00+00:00,226.1031,5.84,12.09,47.84626,-54.09684
2022-06-09 02:29:00+00:00,229.0397,5.89,12.09,47.84626,-54.09684
2022-06-09 02:39:00+00:00,229.6664,5.9,12.09,47.84626,-54.09684
2022-06-09 02:49:00+00:00,231.5931,5.9,12.09,47.84626,-54.09684
2022-06-09 02:59:00+00:00,235.0981,5.96,12.09,47.84626,-54.09684
2022-06-09 03:09:00+00:00,237.5181,6.0,12.09,47.84626,-54.09684
2022-06-09 03:19:00+00:00,237.2548,6.03,12.09,47.84626,-54.09684
2022-06-09 03:29:00+00:00,238.5031,6.1,12.09,47.84626,-54.09684
2022-06-09 03:39:00+00:00,243.4848,6.1,12.09,47.84626,-54.09684
2022-06-09 03:49:00+00:00,248.3197,6.18,12.09,47.84626,-54.09684
2022-06-09 03:59:00+00:00,250.9897,6.2,12.09,47.84626,-54.09684
2022-06-09 04:09:00+00:00,254.8297,6.2,12.09,47.84626,-54.09684
2022-06-09 04:19:01+00:00,261.4981,6.2,12.09,47.84626,-54.09684
2022-06-09 04:29:01+00:00,268.3564,6.2,12.09,47.84626,-54.09684
2022-06-09 04:39:01+00:00,272.2914,6.2,12.09,47.84626,-54.09684
2022-06-09 04:49:01+00:00,275.5798,6.26,12.09,47.84626,-54.09684
2022-06-09 04:59:01+00:00,277.9081,6.3,12.09,47.84626,-54.09684
2022-06-09 05:09:01+00:00,281.5764,6.3,12.09,47.84626,-54.09684
2022-06-09 05:19:01+00:00,284.9714,6.3,12.01,47.84626,-54.09684
2022-06-09 05:29:01+00:00,287.658,6.3,12.01,47.84626,-54.09684
2022-06-09 05:39:01+00:00,289.1614,6.3,12.01,47.84626,-54.09684
2022-06-09 05:49:01+00:00,293.2664,6.3,12.01,47.84626,-54.09684
2022-06-09 05:59:01+00:00,294.9481,6.3,12.01,47.84626,-54.09684
2022-06-09 06:09:01+00:00,296.9531,6.3,12.01,47.84626,-54.09684
2022-06-09 06:19:00+00:00,300.7563,6.31,12.01,47.84626,-54.09684
2022-06-09 06:29:00+00:00,304.3447,6.32,12.01,47.84626,-54.09684
2022-06-09 06:39:00+00:00,305.4014,6.33,12.01,47.84626,-54.09684
2022-06-09 06:49:00+00:00,305.758,6.31,12.01,47.84626,-54.09684
2022-06-09 06:59:00+00:00,305.2596,6.3,12.01,47.84626,-54.09684
2022-06-09 07:09:00+00:00,305.4064,6.3,12.01,47.84626,-54.09684
2022-06-09 07:19:00+00:00,304.0964,6.3,12.01,47.84626,-54.09684
2022-06-09 07:29:00+00:00,302.4597,6.3,12.01,47.84626,-54.09684
2022-06-09 07:39:00+00:00,302.583,6.3,12.01,47.84626,-54.09684
2022-06-09 07:49:00+00:00,301.5613,6.2,12.01,47.84626,-54.09684
2022-06-09 07:59:00+00:00,297.178,6.2,12.01,47.84626,-54.09684
2022-06-09 08:09:00+00:00,296.2464,6.2,12.01,47.84626,-54.09684
2022-06-09 08:19:00+00:00,298.8997,6.2,12.01,47.84626,-54.09684
2022-06-09 08:29:00+00:00,298.3747,6.2,12.01,47.84626,-54.09684
2022-06-09 08:39:00+00:00,296.703,6.2,12.01,47.84626,-54.09684
2022-06-09 08:49:00+00:00,293.033,6.2,12.01,47.84626,-54.09684
2022-06-09 08:59:00+00:00,286.1714,6.22,12.01,47.84626,-54.09684
2022-06-09 09:09:00+00:00,278.5514,6.2,12.01,47.84626,-54.09684
2022-06-09 09:19:01+00:00,273.7081,6.2,12.01,47.84626,-54.09684
2022-06-09 09:29:01+00:00,269.8414,6.2,12.01,47.84626,-54.09684
2022-06-09 09:39:01+00:00,265.3914,6.1,12.01,47.84626,-54.09684
2022-06-09 09:49:01+00:00,258.1914,6.1,12.01,47.84626,-54.09684
2022-06-09 09:59:01+00:00,250.3964,6.12,12.01,47.84626,-54.09684
2022-06-09 10:09:01+00:00,242.8481,6.17,12.01,47.84626,-54.09684
2022-06-09 10:19:00+00:00,236.4647,6.19,12.01,47.84626,-54.09684
2022-06-09 10:29:00+00:00,230.8981,6.18,12.01,47.84626,-54.09684
2022-06-09 10:39:00+00:00,229.4449,6.12,12.01,47.84626,-54.09684
2022-06-09 10:49:00+00:00,227.1165,6.1,12.01,47.84626,-54.09684
2022-06-09 10:59:00+00:00,220.1515,6.1,12.01,47.84626,-54.09684
2022-06-09 11:09:00+00:00,214.9547,6.12,12.01,47.84626,-54.09684
2022-06-09 11:19:00+00:00,212.0831,6.13,12.01,47.84626,-54.09684
2022-06-09 11:29:00+00:00,208.2614,6.15,12.01,47.84626,-54.09684
2022-06-09 11:39:00+00:00,205.5881,6.17,12.01,47.84626,-54.09684
2022-06-09 11:49:00+00:00,206.0832,6.18,12.01,47.84626,-54.09684
2022-06-09 11:59:00+00:00,205.8915,6.18,12.01,47.84626,-54.09684
2022-06-09 12:09:00+00:00,205.4665,6.19,12.01,47.84626,-54.09684
2022-06-09 12:19:01+00:00,205.5447,6.19,12.01,47.84626,-54.09684
2022-06-09 12:29:01+00:00,205.5698,6.2,12.01,47.84626,-54.09684
2022-06-09 12:39:01+00:00,206.1082,6.2,12.01,47.84626,-54.09684
2022-06-09 12:49:01+00:00,207.5981,6.2,12.01,47.84626,-54.09684
2022-06-09 12:59:01+00:00,206.3848,6.26,12.01,47.84626,-54.09684
2022-06-09 13:09:01+00:00,203.6382,6.29,12.01,47.84626,-54.09684
2022-06-09 13:19:01+00:00,205.6697,6.3,12.17,47.84626,-54.09684
2022-06-09 13:29:01+00:00,207.2831,6.3,12.17,47.84626,-54.09684
2022-06-09 13:39:01+00:00,205.1681,6.3,12.17,47.84626,-54.09684
2022-06-09 13:49:01+00:00,205.4565,6.3,12.17,47.84626,-54.09684
2022-06-09 13:59:01+00:00,208.9131,6.3,12.17,47.84626,-54.09684
2022-06-09 14:09:01+00:00,210.5181,6.33,12.17,47.84626,-54.09684
2022-06-09 14:19:01+00:00,208.8131,6.38,12.41,47.84626,-54.09684
2022-06-09 14:29:01+00:00,211.0414,6.4,12.41,47.84626,-54.09684
2022-06-09 14:39:01+00:00,215.3814,6.4,12.41,47.84626,-54.09684
2022-06-09 14:49:01+00:00,217.7214,6.47,12.41,47.84626,-54.09684
2022-06-09 14:59:01+00:00,220.6248,6.5,12.41,47.84626,-54.09684
2022-06-09 15:09:01+00:00,224.8347,6.5,12.41,47.84626,-54.09684
2022-06-09 15:19:01+00:00,225.8031,6.53,12.41,47.84626,-54.09684
2022-06-09 15:29:01+00:00,225.1197,6.59,12.41,47.84626,-54.09684
2022-06-09 15:39:01+00:00,229.6764,6.6,12.41,47.84626,-54.09684
2022-06-09 15:49:01+00:00,235.2564,6.6,12.41,47.84626,-54.09684
2022-06-09 15:59:01+00:00,237.5514,6.6,12.41,47.84626,-54.09684
2022-06-09 16:09:01+00:00,242.4097,6.6,12.41,47.84626,-54.09684
2022-06-09 16:19:00+00:00,249.1397,6.59,12.41,47.84626,-54.09684
2022-06-09 16:29:00+00:00,253.838,6.59,12.41,47.84626,-54.09684
2022-06-09 16:39:00+00:00,257.5881,6.6,12.41,47.84626,-54.09684
2022-06-09 16:49:00+00:00,266.1664,6.61,12.41,47.84626,-54.09684
2022-06-09 16:59:00+00:00,270.9798,6.66,12.41,47.84626,-54.09684
2022-06-09 17:09:00+00:00,270.9815,6.61,12.41,47.84626,-54.09684
2022-06-09 17:19:00+00:00,274.9164,6.6,12.25,47.84626,-54.09684
2022-06-09 17:29:00+00:00,282.2097,6.6,12.25,47.84626,-54.09684
2022-06-09 17:39:00+00:00,283.8181,6.6,12.25,47.84626,-54.09684
2022-06-09 17:49:00+00:00,284.5864,6.59,12.25,47.84626,-54.09684
2022-06-09 17:59:00+00:00,291.6348,6.6,12.25,47.84626,-54.09684
2022-06-09 18:09:00+00:00,299.223,6.6,12.25,47.84626,-54.09684
2022-06-09 18:19:00+00:00,300.4448,6.6,12.25,47.84626,-54.09684
2022-06-09 18:29:00+00:00,304.8647,6.6,12.25,47.84626,-54.09684
2022-06-09 18:39:00+00:00,311.8814,6.64,12.25,47.84626,-54.09684
2022-06-09 18:49:00+00:00,313.5297,6.67,12.25,47.84626,-54.09684
2022-06-09 18:59:00+00:00,310.8147,6.69,12.25,47.84626,-54.09684
2022-06-09 19:09:00+00:00,314.2579,6.7,12.25,47.84626,-54.09684
2022-06-09 19:19:00+00:00,317.8163,6.7,12.25,47.84626,-54.09684
2022-06-09 19:29:00+00:00,312.238,6.72,12.25,47.84626,-54.09684
2022-06-09 19:39:00+00:00,312.2164,6.8,12.25,47.84626,-54.09684
2022-06-09 19:49:00+00:00,316.1429,6.8,12.25,47.84626,-54.09684
2022-06-09 19:59:00+00:00,317.1431,6.83,12.25,47.84626,-54.09684
2022-06-09 20:09:00+00:00,312.3447,6.8,12.25,47.84626,-54.09684
2022-06-09 20:19:00+00:00,312.9514,6.8,12.17,47.84626,-54.09684
2022-06-09 20:29:00+00:00,311.7996,6.8,12.17,47.84626,-54.09684
2022-06-09 20:39:00+00:00,308.2596,6.81,12.17,47.84626,-54.09684
2022-06-09 20:49:00+00:00,304.5164,6.8,12.17,47.84626,-54.09684
2022-06-09 20:59:00+00:00,301.6847,6.8,12.17,47.84626,-54.09684
2022-06-09 21:09:00+00:00,294.863,6.8,12.17,47.84626,-54.09684
2022-06-09 21:19:00+00:00,291.6747,6.8,12.17,47.84626,-54.09684
2022-06-09 21:29:00+00:00,288.0697,6.8,12.17,47.84626,-54.09684
2022-06-09 21:39:00+00:00,282.0464,6.8,12.17,47.84626,-54.09684
2022-06-09 21:49:00+00:00,274.923,6.8,12.17,47.84626,-54.09684
2022-06-09 21:59:00+00:00,272.0482,6.8,12.17,47.84626,-54.09684
2022-06-09 22:09:00+00:00,268.7414,6.8,12.17,47.84626,-54.09684
2022-06-09 22:19:00+00:00,261.5348,6.8,12.09,47.84626,-54.09684
2022-06-09 22:29:00+00:00,256.3864,6.8,12.09,47.84626,-54.09684
2022-06-09 22:39:00+00:00,252.0714,6.87,12.09,47.84626,-54.09684
2022-06-09 22:49:00+00:00,243.3315,6.9,12.09,47.84626,-54.09684
2022-06-09 22:59:00+00:00,234.0098,6.9,12.09,47.84626,-54.09684
2022-06-09 23:09:00+00:00,233.9732,6.9,12.09,47.84626,-54.09684
2022-06-09 23:19:00+00:00,231.4631,6.94,12.09,47.84626,-54.09684
2022-06-09 23:29:00+00:00,222.1114,6.97,12.09,47.84626,-54.09684
2022-06-09 23:39:00+00:00,217.1314,6.99,12.09,47.84626,-54.09684
2022-06-09 23:49:00+00:00,217.7264,7.0,12.09,47.84626,-54.09684
2022-06-09 23:59:00+00:00,214.1381,7.0,12.09,47.84626,-54.09684
